sat.trackr.live / text

‹ back to catalog

STARLINK-4101

NORAD 53142 · 2022-083L

PAYLOAD ACTIVE UNKNOWN

§ Identity

Operator
Country
US
Launch date
2022-07-17
Launch site
AFETR
Launch vehicle
Mass (kg)
RCS (m²)

Purposes: comms

External: N2YO · Heavens-Above · Gunter

§ Orbital elements

Epoch: 2026-05-24T15:08:31.236576Z

Period
95.44 min
Inclination
53.2121°
Eccentricity
0.0002262
Mean motion
15.08790468 rev/d
Perigee alt
538.3 km
Apogee alt
541.5 km
Semi-major
6,918.0 km
B*
5.5966e-4
RAAN
193.1793°
Arg perigee
84.3073°
Mean anomaly
275.8177°
Rev number
21,269

§ Raw data

STARLINK-41011 53142U 22083L   26144.63091709  .00008618  00000+0  55966-3 0  99982 53142  53.2121 193.1793 0002262  84.3073 275.8177 15.08790468212696

JSON: /api/v1/satellites/53142 · /tle

For live sub-satellite position, see the globe view (requires WebGL).

§ Visibility from observer

Set your observer location to see the next 7 days of passes ≥ 10°. The values pass through the URL so the page stays shareable.

No JS? Fill the form by hand. The geolocation button needs JavaScript.